Showing default

COSMOS 2253, 22688

Orbit data source: Space-Track

COSMOS 2253, 22688 is a payload satellite owned by VKS (CIS) in LEO that was launched on Thu, 24 Jun 1993 UTC via a TSIKLON-3 launch vehicle from the Plesetsk Missile And Space Complex (PKMTR). Payload-class satellites include a variety of spacecraft equipped with specific instruments for various scientific and technological missions. These include communications satellites like Starlink; space stations such as the ISS; scientific satellites like the Hubble; Earth observation satellites from companies like Planet Labs, Umbra, and HawkEye 360; GPS; miniature CubeSats for education and research; and military/defense satellites.

Loading next visibility...
Identifier
22688, 1993-038B
Orbit
LEO
Last TLE update
7 hours ago
Origin
Manufacturer
NPO PM
Mission
Defense Communications
Bus & Motor
STRELA-3, Unknown motor
Mass
225 kg wet, 225 kg dry
Launch date (UTC)
1993-06-24 (32 years ago)
Launch vehicle
TSIKLON-3
Launch site
Plesetsk Missile And Space Complex (PKMTR)
Object type
Payload
Rocket body
Debris
Shape & HBR
Cyl, 1.6 m
Radar Cross Section
1.257 m², Medium (>0.1 m² and < 1m²)

Expand to show TLE details & history

TLE from 7 hours ago
0 COSMOS 2253
1 22688U 93038B   25184.19104001  .00000027  00000-0  94077-4 0  9995
2 22688  82.5873 119.5029 0013076  78.1349 282.1208 12.61589214474756
Epoch: 2025-07-03T04:35Z
TLE epoch observation values (Epoch: 2025-07-03T04:35:05.856Z)
Latitude
0.00002°
Longitude
129.26717°
Altitude
1,416.993 km
Speed
7.153 km/s
True Right ascension
07h 58m 00s
True Declination
0° 00' 00"
Sunlit
Object was in daylight at epoch
Visualization orbit readout
Latitude
-54.63313°
Longitude
118.56377°
Altitude
1,444.415 km
Speed
7.136 km/s
Apparent Right ascension
09h 33m 50s
Apparent Declination
-52° 51' 55"
Sunlit
Object is in daylight
Visualization observer readout
Local Sidereal Time
23:40:56
Azimuth
131.59° SE
Elevation
-64.846°
Doppler factor
1
Orbital elements
Apogee altitude
1,423.902 km
Perigee altitude
1,403.525 km
Semi-major axis
7,791.85 km
Eccentricity
0.00131
Inclination
82.5873°
RAAN
119.5029°
Arg. of periapsis
78.1349°
True anomaly
Unknown
Mean anomaly
282.1208°
Eccentric anomaly
Unknown
Mean motion
3.1556 °/min
Orbital period
114.08 mins
BSTAR
0.000094077
Loading maneuver chart data...
Loading SW <> Apogee altitude chart data...
Loading historical data...
Loading historical data...
Loading historical data...
Loading historical data...
Loading historical data...
Loading historical data...
Loading historical data...

COSMOS 2253 Visibility forecast

Observer location: undefined°, undefined°

Span
Click to sort rows by Start time (UTC) header in descending order
Start Az.
Max El. time (UTC)
Max El. Az.
Max El.
End time (UTC)
End Az.
16 mins2025-07-03 19:53:22.029Z167.111° S2025-07-03 20:01:22.029Z89.116° E40.503°2025-07-03 20:09:22.029Z15.218° NNE
12 mins2025-07-03 21:51:22.029Z240.878° WSW2025-07-03 21:56:22.029Z285.224° WNW25.49°2025-07-03 22:03:22.029Z345.921° N
11 mins2025-07-04 05:57:22.029Z24.393° NE2025-07-04 06:02:22.029Z67.255° ENE21.575°2025-07-04 06:08:22.029Z115.373° SE
15 mins2025-07-04 07:51:22.029Z346.787° N2025-07-04 07:58:22.029Z255.533° W43.466°2025-07-04 08:06:22.029Z184.742° SSW
|